This is the latest recevied weather packets stored in our database for station/object KB0BS-13. If no packets are shown the sender has not sent any weather packets the latest 10 day(s).
| Time | Temp. | Humidity | Pressure | Rain* | Wind** | Luminosity | Snow |
|---|---|---|---|---|---|---|---|
| 1777650644 | 3.33° C | 62% | 1016.7 hPa | 0 mm | - | 488 W/m² | - |
| 1777650342 | 3.89° C | 69% | 1016.5 hPa | 0 mm | - | 409 W/m² | - |
| 1777650038 | 3.89° C | 65% | 1016.9 hPa | 0 mm | - | 442 W/m² | - |
| 1777649736 | 3.89° C | 66% | 1016.8 hPa | 0 mm | - | 424 W/m² | - |
| 1777649432 | 3.89° C | 64% | 1016.7 hPa | 0 mm | - | 442 W/m² | - |
| 1777649129 | 3.89° C | 66% | 1016.9 hPa | 0 mm | - | 517 W/m² | - |
| 1777648827 | 3.33° C | 66% | 1016.7 hPa | 0 mm | - | 372 W/m² | - |
| 1777648524 | 3.89° C | 70% | 1016.8 hPa | 0 mm | - | 331 W/m² | - |
| 1777648221 | 3.89° C | 71% | 1016.7 hPa | 0 mm | - | 508 W/m² | - |
| 1777647921 | 3.33° C | 66% | 1016.8 hPa | 0 mm | - | 532 W/m² | - |
| 1777647619 | 3.33° C | 66% | 1016.7 hPa | 0 mm | - | 657 W/m² | - |
| 1777647315 | 3.33° C | 66% | 1016.7 hPa | 0 mm | - | 456 W/m² | - |
| 1777647013 | 3.33° C | 69% | 1016.8 hPa | 0 mm | - | 436 W/m² | - |
| 1777646708 | 3.33° C | 70% | 1016.5 hPa | 0 mm | - | 444 W/m² | - |
| 1777646404 | 3.33° C | 71% | 1016.8 hPa | 0 mm | - | 367 W/m² | - |
| 1777646101 | 3.33° C | 73% | 1016.7 hPa | 0 mm | - | 473 W/m² | - |
| 1777645797 | 3.33° C | 74% | 1016.5 hPa | 0 mm | - | 368 W/m² | - |
| 1777645495 | 3.33° C | 74% | 1016.8 hPa | 0 mm | - | 444 W/m² | - |
| 1777645190 | 3.33° C | 72% | 1016.5 hPa | 0 mm | - | 465 W/m² | - |
| 1777644886 | 3.33° C | 70% | 1016.6 hPa | 0 mm | - | 413 W/m² | - |
| 1777644584 | 2.78° C | 71% | 1016.6 hPa | 0 mm | - | 417 W/m² | - |
| 1777644280 | 3.33° C | 80% | 1016.8 hPa | 0 mm | - | 512 W/m² | - |
| 1777643976 | 3.33° C | 76% | 1016.7 hPa | 1.78 mm | - | 452 W/m² | - |
| 1777643674 | 2.78° C | 78% | 1016.8 hPa | 1.78 mm | - | 410 W/m² | - |
| 1777643371 | 2.78° C | 76% | 1016.8 hPa | 0 mm | - | 434 W/m² | - |
* Rain latest hour (hover to see other rain measurements)
** Current wind speed in m/s (hover to see current wind gust speed)